Change the Weather History Date:

Thursday, February 21, 2013

  Actual Average Record
Temperature  
Mean Temperature 80 °F -  
Max Temperature 84 °F - - ()
Min Temperature 77 °F - - ()
Cooling Degree Days 16    
Growing Degree Days 30 (Base 50)    
Moisture  
Dew Point 76 °F    
Average Humidity 87    
Maximum Humidity 100    
Minimum Humidity 74    
Precipitation  
Precipitation 0.12 in - - ()
Sea Level Pressure  
Sea Level Pressure 29.75 in    
Wind  
Wind Speed 8 mph ()    
Max Wind Speed 17 mph    
Max Gust Speed 30 mph    
T = Trace of Precipitation, MM = Missing Value Source: Averaged Metar Reports

Daily Weather History Graph

Daily Weather History Graph

Search for Another Location

Airport or City:

Trip Planner

Search our weather history database for the weather conditions in past years. The results will help you decide how hot, cold, wet, or windy it might be!

Date:

Astronomy

Feb. 21, 2013 Rise Set
Actual Time 5:58 AM AEST 6:37 PM AEST
Civil Twilight 5:35 AM AEST 6:59 PM AEST
Nautical Twilight 5:09 AM AEST 7:26 PM AEST
Astronomical Twilight 4:42 AM AEST 7:52 PM AEST
Moon 3:07 PM AEST (2/21) 1:39 AM AEST (2/21)
Length of Visible Light 13h 24m
Length of Day
12h 38m
Waxing Gibbous, 79% of the Moon is Illuminated
Feb 21
Waxing Gibbous
Feb 26
Full
Mar 5
Last Quarter
Mar 12
New
Mar 20
First Quarter

Hourly Weather History & Observations

Time (AEST) Temp. Heat Index Dew Point Humidity Pressure Visibility Wind Dir Wind Speed Gust Speed Precip Events Conditions
12:00 AM 78.8 °F - 75.2 °F 89% 29.77 in - ESE 9.2 mph - N/A   Unknown
12:30 AM 78.8 °F - 75.2 °F 89% 29.77 in - ENE 4.6 mph - N/A   Unknown
1:00 AM 78.8 °F - 77.0 °F 94% 29.77 in - ESE 3.5 mph - N/A   Unknown
1:30 AM 78.8 °F - 75.2 °F 89% 29.74 in - SE 3.5 mph - N/A   Unknown
2:00 AM 78.8 °F - 75.2 °F 89% 29.74 in - South 4.6 mph - N/A   Unknown
2:30 AM 78.8 °F - 77.0 °F 94% 29.74 in - West 2.3 mph - N/A   Unknown
3:00 AM 78 °F - 77 °F 96% 29.73 in - South 5.8 mph - -  
3:00 AM 77.0 °F - 77.0 °F 100% 29.74 in - South 5.8 mph - N/A   Unknown
3:30 AM 77.0 °F - 77.0 °F 100% 29.71 in - SSW 4.6 mph - N/A   Unknown
4:00 AM 77.0 °F - 77.0 °F 100% 29.74 in - SSW 8.1 mph - N/A   Unknown
4:30 AM 77.0 °F - 77.0 °F 100% 29.74 in - South 8.1 mph - N/A   Unknown
5:00 AM 77.0 °F - 77.0 °F 100% 29.74 in - South 9.2 mph - N/A   Unknown
5:30 AM 77.0 °F - 77.0 °F 100% 29.74 in - South 10.4 mph - N/A   Unknown
6:00 AM 78 °F - 77 °F 94% 29.75 in - SSW 6.9 mph - -  
6:00 AM 77.0 °F - 77.0 °F 100% 29.74 in - South 6.9 mph - N/A   Unknown
6:30 AM 77.0 °F - 77.0 °F 100% 29.74 in - South 8.1 mph - N/A   Unknown
7:00 AM 78.8 °F - 77.0 °F 94% 29.77 in - South 8.1 mph - N/A   Unknown
7:30 AM 78.8 °F - 75.2 °F 89% 29.77 in - South 9.2 mph - N/A   Unknown
8:00 AM 80.6 °F 86.2 °F 75.2 °F 84% 29.77 in - South 5.8 mph - N/A   Unknown
8:30 AM 82.4 °F 90.9 °F 77.0 °F 84% 29.77 in - SSE 8.1 mph - N/A   Unknown
9:00 AM 82 °F - 76 °F 79% 29.78 in - SSE 9.2 mph - -  
9:00 AM 82.4 °F 90.9 °F 77.0 °F 84% 29.77 in - SSE 9.2 mph - N/A   Unknown
9:30 AM 82.4 °F 89.5 °F 75.2 °F 79% 29.77 in - SSE 10.4 mph - N/A   Unknown
10:00 AM 82.4 °F 90.9 °F 77.0 °F 84% 29.80 in - SSE 11.5 mph - N/A   Unknown
10:30 AM 82.4 °F 90.9 °F 77.0 °F 84% 29.80 in - SSE 12.7 mph - N/A   Unknown
11:00 AM 82.4 °F 90.9 °F 77.0 °F 84% 29.80 in - SSE 12.7 mph - N/A   Unknown
11:30 AM 82.4 °F 90.9 °F 77.0 °F 84% 29.77 in - SSE 13.8 mph - N/A   Unknown
12:00 PM 84 °F - 78 °F 79% 29.77 in - SSE 13.8 mph - -  
12:00 PM 84.2 °F 96.1 °F 78.8 °F 84% 29.77 in - SSE 13.8 mph - N/A   Unknown
12:30 PM 84.2 °F 92.3 °F 75.2 °F 74% 29.77 in - SE 12.7 mph - N/A   Unknown
1:00 PM 84.2 °F 94.1 °F 77.0 °F 79% 29.74 in - SE 12.7 mph - N/A   Unknown
2:00 PM 82.4 °F 89.5 °F 75.2 °F 79% 29.71 in - East 15.0 mph - N/A   Unknown
2:30 PM 82.4 °F 89.5 °F 75.2 °F 79% 29.71 in - East 15.0 mph - N/A   Unknown
3:00 PM 83 °F - 76 °F 74% 29.71 in - East 13.8 mph - -  
3:00 PM 82.4 °F 89.5 °F 75.2 °F 79% 29.71 in - East 13.8 mph - N/A   Unknown
3:30 PM 82.4 °F 89.5 °F 75.2 °F 79% 29.71 in - East 15.0 mph - N/A   Unknown
4:00 PM 82.4 °F 89.5 °F 75.2 °F 79% 29.71 in - East 15.0 mph - N/A   Unknown
4:30 PM 82.4 °F 88.2 °F 73.4 °F 74% 29.71 in - East 16.1 mph - N/A   Unknown
5:00 PM 82.4 °F 89.5 °F 75.2 °F 79% 29.71 in - East 15.0 mph - N/A   Unknown
5:30 PM 82.4 °F 89.5 °F 75.2 °F 79% 29.71 in - East 15.0 mph - N/A   Unknown
6:00 PM 81 °F - 75 °F 77% 29.73 in - East 15.0 mph - -  
6:00 PM 80.6 °F 86.2 °F 75.2 °F 84% 29.74 in - East 15.0 mph - N/A   Unknown
6:30 PM 80.6 °F 85.4 °F 73.4 °F 79% 29.74 in - East 16.1 mph - N/A   Unknown
7:00 PM 80.6 °F 85.4 °F 73.4 °F 79% 29.74 in - East 15.0 mph - N/A   Unknown
7:08 PM 80.6 °F 85.4 °F 73.4 °F 79% 29.74 in - East 17.3 mph 29.9 mph N/A   Unknown
7:30 PM 77.0 °F - 75.2 °F 94% 29.77 in - ENE 13.8 mph - N/A   Unknown
8:00 PM 80.6 °F 86.2 °F 75.2 °F 84% 29.77 in - East 12.7 mph - N/A   Unknown
8:30 PM 78.8 °F - 73.4 °F 83% 29.80 in - ESE 13.8 mph - N/A   Unknown
9:00 PM 78 °F - 76 °F 90% 29.80 in - NE 6.9 mph - -  
9:00 PM 78.8 °F - 75.2 °F 89% 29.80 in - NE 6.9 mph - N/A   Unknown
9:30 PM 78.8 °F - 75.2 °F 89% 29.80 in - East 8.1 mph - N/A   Unknown
10:00 PM 77.0 °F - 77.0 °F 100% 29.77 in - NNE 5.8 mph - N/A   Unknown
10:30 PM 77.0 °F - 77.0 °F 100% 29.80 in - WNW 5.8 mph - N/A   Unknown
11:00 PM 77.0 °F - 77.0 °F 100% 29.80 in - NNE 3.5 mph - N/A   Unknown
11:30 PM 77.0 °F - 77.0 °F 100% 29.80 in - WSW 8.1 mph - N/A   Unknown